Showing default

OV1-14, 3174

Orbit data source: Space-Track

OV1-14, 3174 is a payload satellite owned by USAF OAR (US) that was launched on Sat, 06 Apr 1968 UTC via an ATLAS F launch vehicle from the Air Force Western Test Range (AFWTR). Payload-class satellites include a variety of spacecraft equipped with specific instruments for various scientific and technological missions. These include communications satellites like Starlink; space stations such as the ISS; scientific satellites like the Hubble; Earth observation satellites from companies like Planet Labs, Umbra, and HawkEye 360; GPS; miniature CubeSats for education and research; and military/defense satellites.

Loading next visibility...
Identifier
3174, 1968-026B
Orbit
Active
Country
Flag of USUS
Related business
Manufacturer
GD/Convair
Mission
Spacecraft
Bus & Motor
OV1, Unknown motor
Mass
101 kg wet, 101 kg dry
Launch date (UTC)
1968-04-06 (58 years ago)
Launch vehicle
ATLAS F
Launch site
Air Force Western Test Range (AFWTR)
Object type
Payload
Rocket body
Debris
Shape & HBR
Unknown
Radar Cross Section
Medium (>0.1 m² and <1 m²)

Expand to show TLE details & history
Last TLE update: 13 hours ago

TLE from 13 hours ago
0 OV1-14
1 03174U 68026B   26100.89825404  .00000198  00000-0  32263-3 0  9993
2 03174  99.9974 339.2832 4013531 350.7497   7.5410  6.96757540471633
Epoch: 2026-04-10T21:33Z
TLE epoch observation values (Epoch: 2026-04-10T21:33:29.149Z)
Latitude
9.61927°
Longitude
175.08417°
Altitude
665.645 km
Speed
8.877 km/s
True Right ascension
22h 30m 19s
True Declination
9° 33' 43"
Sunlit
Object was in daylight at epoch
Visualization orbit readout
Latitude
Unknown
Longitude
Unknown
Altitude
Unknown
Speed
Unknown
Apparent Right ascension
Unknown
Apparent Declination
Unknown
Sunlit
N/A
Visualization observer readout
Local Sidereal Time
17:14:49
Azimuth
Unknown
Elevation
Unknown
Doppler factor
Unknown
Orbital elements
Apogee altitude
9,845.347 km
Perigee altitude
552.407 km
Semi-major axis
11,577.014 km
Eccentricity
0.40135
Inclination
99.9974°
RAAN
339.2832°
Arg. of periapsis
350.7497°
True anomaly
19.06945°
Mean anomaly
7.541°
Eccentric anomaly
12.52994°
Mean motion
1.7424 °/min
Orbital period
206.61 mins
BSTAR
0.00032263
Loading maneuver chart data...
Computing Atmospheric mass density...
Loading historical data...
Loading historical data...
Loading historical data...
Loading historical data...
Loading historical data...
Loading historical data...
Loading historical data...
Other satellites on launch #26 in the year 1968 (1968-04-06 UTC)

Documentation

Showing up to 5 results
|